Location: Br?ani
(45.3789°N, 16.4981°E)
Time: 20:06:06
(UTC+00:00)

Daily predictions for brighter satellites

Satellite Brightness Start Highest point End
(mag) Time Altitude Azimuth Time Altitude Azimuth Time Altitude Azimuth
BREEZE-M DEB (TANK) 3.7 16:58:17 10° SSW 17:01:05 41° SE 17:08:23 10° ENE
YAOGAN 1 3.0 17:00:22 10° SE 17:04:27 43° ENE 17:08:34 10° N
Cosmos 494 Rocket 4.0 16:59:40 10° NNW 17:04:59 81° ENE 17:10:15 10° SSE
Lacrosse 4 Rocket 2.9 17:02:23 10° N 17:05:25 20° NE 17:08:28 10° E
SL-24 R/B 4.5 17:00:54 10° SSE 17:05:32 87° E 17:10:48 10° NNW
BREEZE-M TANK 4.1 16:50:03 10° WSW 17:05:41 62° SSE 17:09:52 10° E
Lacrosse 5 rocket 3.0 17:03:33 10° NW 17:07:08 24° NNE 17:10:49 10° ENE
Cosmos 1674 3.0 17:05:43 10° N 17:09:26 44° ENE 17:13:05 10° SSE
Meteor 1-15 Rocket 4.4 17:07:27 10° S 17:12:58 56° E 17:18:39 10° NNE
Cosmos 1536 Rocket 3.6 17:08:42 10° N 17:13:12 75° E 17:17:40 10° SSE
SKYMED 2 3.7 17:09:40 10° NNE 17:14:03 86° W 17:18:23 10° SSW
SeaSat 1 4.5 17:11:02 10° S 17:15:24 32° WSW 17:19:48 10° NW
Helios 1A Rocket 3.1 17:11:58 10° SSE 17:16:06 81° WSW 17:20:17 10° NNW
ARGOS 3.9 17:12:54 10° SE 17:17:33 31° ENE 17:22:16 10° N
CZ-4 R/B 1.4 17:14:26 10° SSE 17:18:35 71° ENE 17:22:41 10° N
Cosmos 2034 Rocket 4.0 17:12:37 10° S 17:18:55 71° E 17:25:13 10° NNE
Meteor 1-24 Rocket 4.4 17:13:43 10° N 17:18:55 35° ENE 17:24:15 10° SE
CENTAUR R/B 3.6 17:11:02 10° NW 17:19:09 71° WSW 17:27:55 10° SSE
Okean 2 Rocket 3.7 17:16:27 10° SSW 17:20:52 62° W 17:25:17 10° N
CZ-2C R/B 4.1 17:17:45 10° NE 17:21:26 18° E 17:25:06 10° SE
OE (NEXTSAT) 4.4 17:19:34 10° WSW 17:23:01 68° SSE 17:25:59 13° E
MOS 1 Rocket 3.9 17:20:02 10° NE 17:23:47 29° E 17:27:32 10° SSE
Shenzhou-11 Module 2.1 17:22:45 10° WSW 17:24:36 33° S 17:25:48 16° SE
NOSS 3-4 (A) 3.4 17:19:11 10° SW 17:25:05 86° SE 17:31:24 10° NE
NOSS 3-4 (C) 3.4 17:19:17 10° SSW 17:25:11 85° SE 17:31:30 10° NE
Ariane Rocket 4.2 17:26:02 11° ESE 17:29:38 23° ENE 17:33:35 10° N
Cosmos 1626 2.9 17:26:33 10° N 17:29:54 31° ENE 17:33:13 10° SE
USA 186 3.5 17:32:30 16° E 17:33:03 16° ENE 17:35:11 10° NNE
Cosmos 1470 4.3 17:32:51 16° E 17:33:23 16° E 17:35:50 10° NE
SL-14 R/B 4.0 17:31:25 10° N 17:35:04 33° ENE 17:38:44 10° SE
Aureole 2 Rocket 2.3 17:32:15 10° S 17:35:29 56° ESE 17:38:40 10° NNE
Cosmos 1766 3.3 17:31:39 10° S 17:35:30 54° E 17:39:24 10° NNE
SL-8 R/B 4.4 17:31:34 10° SSW 17:35:54 35° SE 17:39:03 17° E
ATLAS 3B R/B 2.8 17:30:54 10° NW 17:37:44 64° NE 17:44:35 11° SE
USA 116 3.9 17:33:43 10° NNE 17:37:46 65° ESE 17:42:18 10° S
Cosmos 1634 Rocket 4.2 17:34:56 10° SSE 17:40:48 47° E 17:46:44 10° NNE
Meteor 2-5 Rocket 3.8 17:35:15 10° N 17:40:58 67° ENE 17:46:48 10° SSE
Cosmos 1733 3.2 17:37:38 10° S 17:41:23 56° E 17:45:07 10° NNE
RESURS DK-1 2.8 17:42:31 10° S 17:46:23 39° ESE 17:50:17 10° NE
ATLAS 2AS CENTAUR R/B 3.2 17:39:29 10° SW 17:47:28 83° NW 17:55:24 10° NE
SL-08 RB Rocket 4.3 17:44:52 15° SE 17:48:10 36° ENE 17:52:17 10° N
Cosmos 2195 Rocket 4.4 17:43:02 10° N 17:49:13 67° E 17:55:18 10° SSE
Cosmos 2026 Rocket 4.1 17:44:25 10° N 17:50:45 60° ENE 17:57:01 10° SSE
Cosmos 1269 Rocket 4.3 17:46:51 10° NNW 17:52:10 73° WSW 17:57:26 10° SSE
Cosmos 2082 Rocket 2.7 17:49:05 10° NNW 17:54:25 42° ENE 17:57:35 22° ESE
Cosmos 1428 Rocket 4.5 17:49:20 10° N 17:55:31 61° ENE 18:01:35 10° SSE
SJ-11-01 4.3 17:53:19 10° SSE 17:58:01 89° W 18:02:44 10° NNW
Cosmos 1092 Rocket 4.0 17:52:27 10° N 17:58:42 88° E 18:04:57 10° S
Cosmos 1461 4.5 17:54:48 10° NNW 17:58:48 26° NE 18:00:20 22° ENE
BREEZE-M DEB (TANK) 3.8 17:58:09 10° W 18:01:17 46° SSW 18:09:06 13° SE
Cosmos 1627 Rocket 4.5 17:55:31 10° N 18:01:57 76° E 18:08:19 10° SSE
Okean-O 4.3 17:58:30 10° SSW 18:02:34 35° W 18:06:39 10° NNW
COSMOS 2455 3.1 17:56:58 10° S 18:02:37 45° ESE 18:08:20 10° NE
CZ-2C R/B 3.6 17:58:43 10° S 18:04:11 67° W 18:09:57 10° NNW
H-2A R/B 2.1 18:00:57 10° SSE 18:06:01 82° WSW 18:11:17 10° NNW
Cosmos 2279 Rocket 4.1 18:03:37 10° SSE 18:09:35 49° E 18:15:35 10° NNE
Cosmos 1455 Rocket 3.3 18:05:51 10° SSE 18:09:58 42° E 18:14:05 10° NNE
Cosmos 909 Rocket 4.3 18:04:40 10° NNW 18:10:59 52° NE 18:14:04 28° ESE
SJ-6B 3.1 18:15:13 41° ENE 18:15:15 41° ENE 18:18:53 10° N
Cosmos 1655 Rocket 4.4 18:11:03 10° N 18:16:59 40° ENE 18:19:16 30° ESE
DMSP B5D2-2 4.4 18:14:33 10° NNE 18:19:36 43° E 18:24:32 10° S
OBJECT-B 3.1 18:22:42 14° NNE 18:22:42 14° NNE 18:23:25 10° NNE
ISS -3.3 18:17:43 10° NW 18:21:00 47° NNE 18:21:09 46° NNE
Cosmos 2278 Rocket 2.3 18:17:57 10° SSW 18:23:37 80° WNW 18:29:18 10° NNE
Gbstr 26 Del rocket 4.2 18:18:10 10° SW 18:24:50 79° SSE 18:30:28 21° ENE
Cosmos 1833 Rocket 3.1 18:26:46 10° NNW 18:32:22 63° WSW 18:36:36 18° S
Cosmos 2251 Rocket 3.4 18:28:27 10° NNW 18:33:49 76° ENE 18:35:38 42° SE
Cosmos 2142 Rocket 4.4 18:29:33 10° S 18:35:48 88° ESE 18:42:01 10° N
Cosmos 1340 Rocket 3.9 18:32:49 10° SSW 18:36:39 44° WNW 18:40:32 10° N
Okean 1-7 Rocket 3.5 18:32:23 10° N 18:36:59 83° E 18:38:11 49° SSE
COSMOS 2406 4.3 18:33:17 10° NW 18:38:37 42° WSW 18:43:55 10° S
Lacrosse 4 Rocket 2.0 18:40:23 10° NW 18:44:22 52° WSW 18:45:15 43° SSW
Lacrosse 5 rocket 1.4 18:42:26 10° NW 18:46:55 75° NE 18:46:58 75° NE
CZ-4C R/B 2.0 18:44:12 10° SW 18:49:09 87° NW 18:55:07 10° NE
Cosmos 1758 3.9 18:50:55 51° N 18:50:55 51° N 18:54:00 10° N
Cosmos 2266 Rocket 3.9 18:49:57 10° N 18:55:56 60° ENE 18:56:18 59° E
SPOT 3 Rocket 3.6 18:57:22 58° NE 18:57:22 58° NE 19:02:03 10° N
ARGOS 4.4 18:52:41 10° SSW 18:57:41 40° W 19:02:46 10° NNW
CZ-2C R/B 2.9 18:56:39 10° N 19:02:16 73° WNW 19:07:51 10° SSW
APEX 4.4 19:00:04 10° SW 19:03:14 40° NW 19:03:27 39° NW
USA 186 3.8 19:04:00 28° WNW 19:04:00 28° WNW 19:06:27 10° NNW
Cosmos 1544 Rocket 4.3 19:05:34 45° N 19:05:34 45° N 19:08:40 10° N
Resurs 01 Rocket 3.0 19:10:02 30° N 19:10:02 30° N 19:12:24 10° N
Ariane Rocket 3.7 19:06:14 32° SSW 19:08:15 51° W 19:13:14 10° NNW
Cosmos 1470 4.1 19:08:01 31° WSW 19:09:07 37° WNW 19:12:45 10° N
Cosmos 614 Rocket 4.2 19:09:42 10° NNW 19:14:02 63° N 19:14:02 63° N
SL-8 R/B 4.3 19:13:23 10° WSW 19:17:03 52° W 19:17:03 52° W
Cosmos 2098 Rocket 3.7 19:13:16 10° NNW 19:19:11 67° W 19:19:21 67° WSW
Cosmos 407 Rocket 4.2 19:19:45 10° NNW 19:23:24 45° N 19:23:24 45° N
ATLAS 3B R/B 4.2 19:22:08 10° NW 19:28:03 31° WSW 19:31:52 19° SSW
Cosmos 2082 Rocket 3.5 19:33:24 10° NW 19:38:22 33° WSW 19:39:28 30° SW
COSMOS 2455 4.1 19:43:04 10° WSW 19:48:39 38° NW 19:54:16 10° NNE
CZ-4C R/B 4.3 20:34:16 10° W 20:38:39 24° NNW 20:43:42 10° NNE
